Location: Владивосток
(43.1151°N, 131.8856°E)
Time: 15:25:43
(UTC+10:00)

NOAA 16 DEB - Visible Passes

Search period start: 16 July 2024 00:00
Search period end: 26 July 2024 00:00
Orbit: 699 x 780 km, 99.0° (Epoch: 15 July)

Date Brightness Start Highest point End Pass type
(mag) Time Alt. Az. Time Alt. Az. Time Alt. Az.
16 Jul ? 00:56:28 10° NNW 00:58:52 13° WNW 01:01:15 10° W visible
16 Jul ? 22:32:11 10° NNE 22:36:54 35° E 22:38:53 26° SE visible
17 Jul ? 00:10:42 10° N 00:15:11 30° WNW 00:18:32 15° WSW visible
17 Jul ? 21:49:39 10° ENE 21:52:13 14° E 21:54:00 12° ESE visible
17 Jul ? 23:26:00 10° N 23:31:10 75° WNW 23:33:38 31° SSW visible
18 Jul ? 01:07:15 10° NW 01:08:37 11° NW 01:10:00 10° WNW visible
18 Jul ? 22:41:55 10° NNE 22:46:48 43° E 22:48:42 30° SSE visible
19 Jul ? 00:20:46 10° N 00:24:56 26° WNW 00:28:20 13° WSW visible
19 Jul ? 21:58:52 10° NE 22:02:08 17° E 22:03:44 15° ESE visible
19 Jul ? 23:35:51 10° N 23:40:56 62° WNW 23:43:23 30° SW visible
20 Jul ? 22:51:34 10° NNE 22:56:35 52° E 22:58:22 35° SSE visible
21 Jul ? 00:30:44 10° NNW 00:34:34 22° WNW 00:38:01 11° WSW visible
21 Jul ? 22:08:09 10° NE 22:11:54 20° E 22:13:20 18° ESE visible
21 Jul ? 23:45:35 10° N 23:50:34 51° WNW 23:52:59 28° SW visible
22 Jul ? 23:01:07 10° NNE 23:06:13 63° ESE 23:07:55 40° SSE visible
23 Jul ? 00:40:39 10° NNW 00:44:04 18° WNW 00:47:26 10° WSW visible
23 Jul ? 22:17:25 10° NE 22:21:32 24° E 22:22:49 22° ESE visible
23 Jul ? 23:55:14 10° N 00:00:03 42° WNW 00:02:27 25° WSW visible
24 Jul ? 23:10:35 10° NNE 23:15:42 76° ESE 23:17:19 44° S visible
25 Jul ? 00:50:32 10° NNW 00:53:25 15° WNW 00:56:17 10° W visible
25 Jul ? 22:26:37 10° NE 22:31:01 29° E 22:32:09 26° ESE visible
